Regional Weather Roundup
Issued by NWS

Home | Current Version | Previous Version | Graphics & Text | Print | Product List | Glossary On
Versions: 1 2 3 4 5 6 7 8 9 10 11 12 13 14 15 16 17 18 19 20 21 22 23 24 25 26 27 28 29 30 31 32 33 34 35 36 37 38 39 40 41 42 43 44 45 46 47 48 49 50
000
ASUS45 KABQ 021710
RWRNM
NEW MEXICO REGIONAL WEATHER ROUNDUP
NATIONAL WEATHER SERVICE ALBUQUERQUE NM
1000 AM MST FRI DEC 02 2016

NOTE: "FAIR" MEANS FEW OR NO CLOUDS BELOW 12,000 FEET AGL WITH NO
       SIGNIFICANT WEATHER OR OBSTRUCTIONS TO VISION.

      THIS PRODUCT IS RELEASED AS TWO VERSIONS.  ONE VERSION NEAR
      THE TOP OF THE HOUR CONTAINING PRELIMINARY DATA FROM ALBUQUERQUE
      AND OTHER STATIONS.  A FINAL VERSION WITH ADDITIONAL DATA IS
      ISSUED ABOUT 10 MINUTES AFTER THE HOUR.

NMZ501-503-504-510>518-021800-
NORTHWEST PLATEAU/NORTHCENTRAL MOUNTAINS

CITY           SKY/WX    TMP DP  RH WIND       PRES   REMARKS
FARMINGTON     FAIR      31  20  63 E6        30.00R WCI  25
LOS ALAMOS     LGT SNOW  29  29 100 W6        30.06S WCI  23
SANTA FE       PTSUNNY   33  28  81 NE5       30.06R WCI  29
TAOS           CLOUDY    25  12  58 N7        30.08R WCI  17
ANGEL FIRE     CLOUDY    22  14  70 NE6       30.10R WCI  15

$$
NMZ402-403-502-505>509-021800-
WESTCENTRAL MOUNTAINS/SOUTHWEST MOUNTAINS

CITY           SKY/WX    TMP DP  RH WIND       PRES   REMARKS
GALLUP         FAIR      35  18  49 NE6       29.97R WCI  30
GRANTS         FAIR      37  25  61 SE16      29.99S WCI  28
SILVER CITY    FAIR      47  17  30 S5        29.98R

$$
NMZ407-409-411-412-021800-
SOUTHERN DESERTS

CITY           SKY/WX    TMP DP  RH WIND       PRES   REMARKS
DEMING         FAIR      52  22  30 E7        29.97R
LAS CRUCES     PTSUNNY   48  25  40 CALM      29.98S
HOLLOMAN AFB   PTSUNNY   46  20  35 CALM      30.01S
T OR C         FAIR      45  15  30 E3        29.97S

$$
NMZ519>523-021800-
CENTRAL VALLEYS/CENTRAL HIGHLANDS

CITY           SKY/WX    TMP DP  RH WIND       PRES   REMARKS
ALBUQUERQUE    FAIR      43  14  31 E22       30.01F
DOUBLE EAGLE   PTSUNNY   37  25  60 N13       30.03R WCI  29
MORIARTY ARPT  FAIR      38  11  33 E7        30.08S WCI  32
CLINES CORNERS FAIR      31  12  45 E22G30    30.07R WCI  18
BELEN          FAIR      42  17  36 NW3       30.01F
SOCORRO        FAIR      44  15  31 N10       30.00F

$$
NMZ524>526-539-540-021800-
SOUTHCENTRAL MOUNTAINS

CITY           SKY/WX    TMP DP  RH WIND       PRES   REMARKS
RUIDOSO        CLOUDY    41  16  36 N3        30.06R

$$
NMZ527>531-021800-
NORTHEAST HIGHLANDS/NORTHEAST PLAINS

CITY           SKY/WX    TMP DP  RH WIND       PRES   REMARKS
LAS VEGAS      CLOUDY    29  12  49 N8        30.13R WCI  21
RATON          CLOUDY    31  11  43 CALM      30.14R
CLAYTON        PTSUNNY   38  18  44 E15       30.16S WCI  29

$$
NMZ532>537-021800-
EASTCENTRAL PLAINS

CITY           SKY/WX    TMP DP  RH WIND       PRES   REMARKS
TUCUMCARI      CLOUDY    40  18  41 E13G18    30.14R WCI  32
CANNON AFB     CLOUDY    39  22  50 E15       30.09F WCI  31
CLOVIS AIRPORT CLOUDY    37  21  52 E14       30.11F WCI  29

$$
NMZ028-029-538-021800-
SOUTHEAST PLAINS

CITY           SKY/WX    TMP DP  RH WIND       PRES   REMARKS
ROSWELL        FAIR      43  20  39 N9        30.06R
ARTESIA        FAIR      41  19  42 NW12      30.06R
CARLSBAD       FAIR      44  19  36 NW15      30.04R
HOBBS          FOG       45  45 100 N14       30.05R VSB 1/2


$$




USA.gov is the U.S. government's official web portal to all federal, state and local government web resources and services.